When you browse on this site, cookies collect data to enhance your experience and personalize the content and advertising you see.
Visit our Privacy Policy to learn more. By continuing to use the site, you agree to this use of cookies and data.
  • In Sweden
  • List of Countries
  • For 7 days
  • Water Temperature
  • Satellite Maps
  • Weather Map
  • Weather Widgets
  • user-avatar
    Login

    Hourly Weather Kucow

    Today, 20 February, Wednesday

    Time Temperature Precipitation Wind Pressure Humidity
    00:00 +3°C° 0 mm 5 mps 743 mmHg 89%
    01:00 +2°C° 0 mm 5 mps 743 mmHg 90%
    02:00 +2°C° 0 mm 5 mps 743 mmHg 90%
    03:00 +2°C° 0 mm 5 mps 744 mmHg 90%
    04:00 +1°C° 0 mm 5 mps 744 mmHg 90%
    05:00 +1°C° 0 mm 5 mps 744 mmHg 90%
    06:00 +1°C° 0 mm 6 mps 744 mmHg 90%
    07:00 +1°C° 0 mm 6 mps 744 mmHg 90%
    08:00 +2°C° 0.1 mm 6 mps 745 mmHg 88%
    09:00 +2°C° 0.1 mm 6 mps 745 mmHg 85%
    10:00 +2°C° 0.1 mm 6 mps 745 mmHg 83%
    11:00 +2°C° 0.1 mm 6 mps 746 mmHg 81%
    12:00 +2°C° 0.1 mm 6 mps 746 mmHg 79%
    13:00 +3°C° 0.1 mm 6 mps 746 mmHg 78%
    14:00 +3°C° 0 mm 6 mps 746 mmHg 77%
    15:00 +3°C° 0 mm 6 mps 746 mmHg 76%
    16:00 +3°C° 0 mm 6 mps 747 mmHg 75%
    17:00 +3°C° 0 mm 5 mps 747 mmHg 76%
    18:00 +3°C° 0 mm 5 mps 747 mmHg 78%
    19:00 +2°C° 0 mm 5 mps 748 mmHg 80%
    20:00 +3°C° 0 mm 4 mps 748 mmHg 81%
    21:00 +3°C° 0 mm 4 mps 748 mmHg 82%
    22:00 +3°C° 0 mm 3 mps 748 mmHg 84%
    23:00 +3°C° 0 mm 3 mps 748 mmHg 85%

    Tomorrow, 21 February, Thursday

    Time Temperature Precipitation Wind Pressure Humidity
    00:00 +3°C° 0 mm 3 mps 749 mmHg 87%
    01:00 +3°C° 0 mm 3 mps 749 mmHg 88%
    02:00 +3°C° 0 mm 3 mps 749 mmHg 89%
    03:00 +3°C° 0 mm 4 mps 749 mmHg 89%
    04:00 +3°C° 0 mm 4 mps 749 mmHg 90%
    05:00 +3°C° 0 mm 4 mps 749 mmHg 89%
    06:00 +3°C° 0 mm 4 mps 748 mmHg 89%
    07:00 +3°C° 0 mm 4 mps 748 mmHg 88%
    08:00 +2°C° 0.1 mm 5 mps 748 mmHg 84%
    09:00 +2°C° 0.1 mm 5 mps 748 mmHg 80%
    10:00 +3°C° 0.1 mm 6 mps 748 mmHg 76%
    11:00 +3°C° 0.6 mm 6 mps 747 mmHg 78%
    12:00 +3°C° 0.6 mm 7 mps 747 mmHg 79%
    13:00 +3°C° 0.6 mm 7 mps 747 mmHg 81%
    14:00 +3°C° 0.5 mm 7 mps 746 mmHg 81%
    15:00 +4°C° 0.5 mm 7 mps 746 mmHg 82%
    16:00 +4°C° 0.5 mm 7 mps 746 mmHg 83%
    17:00 +4°C° 0.5 mm 7 mps 746 mmHg 85%
    18:00 +4°C° 0.5 mm 7 mps 746 mmHg 87%
    19:00 +4°C° 0.5 mm 7 mps 746 mmHg 89%
    20:00 +4°C° 0.6 mm 7 mps 746 mmHg 89%
    21:00 +4°C° 0.6 mm 7 mps 746 mmHg 90%
    22:00 +4°C° 0.6 mm 7 mps 746 mmHg 91%
    23:00 +4°C° 0.2 mm 7 mps 746 mmHg 92%

    Day after tomorrow, 22 February, Friday

    Time Temperature Precipitation Wind Pressure Humidity
    00:00 +4°C° 0.2 mm 7 mps 746 mmHg 92%
    01:00 +5°C° 0.2 mm 7 mps 746 mmHg 92%
    02:00 +4°C° 0.9 mm 7 mps 746 mmHg 91%
    03:00 +4°C° 0.9 mm 7 mps 746 mmHg 91%
    04:00 +4°C° 0.9 mm 7 mps 746 mmHg 90%
    05:00 +2°C° 0.3 mm 7 mps 747 mmHg 87%
    06:00 0°C° 0.3 mm 7 mps 748 mmHg 85%
    07:00 -2°C° 0.3 mm 7 mps 749 mmHg 82%
    08:00 -2°C° 0 mm 7 mps 751 mmHg 75%
    09:00 -2°C° 0 mm 6 mps 752 mmHg 67%
    10:00 -3°C° 0 mm 6 mps 753 mmHg 60%
    11:00 -2°C° 0 mm 6 mps 754 mmHg 58%
    12:00 -2°C° 0 mm 6 mps 755 mmHg 55%
    13:00 -1°C° 0 mm 5 mps 756 mmHg 53%
    14:00 -1°C° 0 mm 5 mps 756 mmHg 52%
    15:00 -2°C° 0 mm 5 mps 756 mmHg 50%
    16:00 -2°C° 0 mm 5 mps 757 mmHg 49%
    17:00 -4°C° 0 mm 5 mps 758 mmHg 51%
    18:00 -4°C° 0 mm 5 mps 758 mmHg 53%
    19:00 -5°C° 0 mm 5 mps 759 mmHg 55%
    20:00 -5°C° 0 mm 5 mps 759 mmHg 53%
    21:00 -5°C° 0 mm 4 mps 760 mmHg 51%
    22:00 -5°C° 0 mm 4 mps 760 mmHg 49%
    23:00 -5°C° 0 mm 4 mps 761 mmHg 47%

    23 February, Saturday

    Time Temperature Precipitation Wind Pressure Humidity
    00:00 -5°C° 0 mm 3 mps 761 mmHg 44%
    01:00 -5°C° 0 mm 3 mps 762 mmHg 42%
    02:00 -5°C° 0 mm 3 mps 762 mmHg 41%
    03:00 -4°C° 0 mm 2 mps 762 mmHg 40%
    04:00 -4°C° 0 mm 2 mps 762 mmHg 40%
    05:00 -4°C° 0 mm 2 mps 762 mmHg 40%
    06:00 -4°C° 0 mm 2 mps 762 mmHg 40%
    07:00 -2°C° 0 mm 1 mps 762 mmHg 40%
    08:00 -2°C° 0 mm 1 mps 762 mmHg 37%
    09:00 -1°C° 0 mm 1 mps 762 mmHg 34%
    10:00 0°C° 0 mm 1 mps 762 mmHg 31%
    11:00 0°C° 0 mm 1 mps 762 mmHg 29%
    12:00 +1°C° 0 mm 1 mps 762 mmHg 27%
    13:00 +1°C° 0 mm 0 mps 762 mmHg 25%
    14:00 +2°C° 0 mm 1 mps 761 mmHg 27%
    15:00 +2°C° 0 mm 1 mps 761 mmHg 29%
    16:00 +2°C° 0 mm 1 mps 761 mmHg 31%
    17:00 +1°C° 0 mm 1 mps 761 mmHg 33%
    18:00 0°C° 0 mm 1 mps 761 mmHg 36%
    19:00 0°C° 0 mm 1 mps 761 mmHg 38%
    20:00 0°C° 0 mm 1 mps 760 mmHg 38%
    21:00 0°C° 0 mm 1 mps 760 mmHg 38%
    22:00 -3°C° 0 mm 2 mps 760 mmHg 38%
    23:00 -3°C° 0 mm 2 mps 760 mmHg 39%

    24 February, Sunday

    Time Temperature Precipitation Wind Pressure Humidity
    00:00 -3°C° 0 mm 2 mps 760 mmHg 39%
    01:00 -3°C° 0 mm 2 mps 760 mmHg 40%
    02:00 -2°C° 0 mm 2 mps 759 mmHg 39%
    03:00 -2°C° 0 mm 2 mps 759 mmHg 38%
    04:00 -1°C° 0 mm 2 mps 759 mmHg 37%
    05:00 -2°C° 0 mm 2 mps 758 mmHg 38%
    06:00 -2°C° 0 mm 2 mps 758 mmHg 39%
    07:00 -2°C° 0 mm 2 mps 758 mmHg 40%
    08:00 -1°C° 0 mm 3 mps 758 mmHg 38%
    09:00 0°C° 0 mm 3 mps 758 mmHg 36%
    10:00 +1°C° 0 mm 3 mps 757 mmHg 34%
    11:00 +2°C° 0 mm 3 mps 757 mmHg 35%
    12:00 +3°C° 0 mm 3 mps 757 mmHg 35%
    13:00 +4°C° 0 mm 3 mps 756 mmHg 36%
    14:00 +4°C° 0 mm 3 mps 756 mmHg 41%
    15:00 +4°C° 0 mm 2 mps 756 mmHg 46%
    16:00 +4°C° 0 mm 2 mps 756 mmHg 51%
    17:00 +3°C° 0 mm 2 mps 756 mmHg 54%
    18:00 +2°C° 0 mm 2 mps 756 mmHg 57%
    19:00 +2°C° 0 mm 1 mps 756 mmHg 59%
    20:00 +2°C° 0 mm 1 mps 756 mmHg 60%
    21:00 +2°C° 0 mm 1 mps 756 mmHg 61%
    22:00 +2°C° 0 mm 1 mps 756 mmHg 62%
    23:00 +2°C° 0 mm 1 mps 756 mmHg 62%

    25 February, Monday

    Time Temperature Precipitation Wind Pressure Humidity
    00:00 +2°C° 0 mm 1 mps 756 mmHg 63%
    01:00 +2°C° 0 mm 1 mps 756 mmHg 63%
    02:00 +1°C° 0 mm 2 mps 755 mmHg 64%
    03:00 +1°C° 0 mm 2 mps 755 mmHg 64%
    04:00 +1°C° 0 mm 2 mps 755 mmHg 65%
    05:00 +1°C° 0 mm 2 mps 755 mmHg 67%
    06:00 +1°C° 0 mm 2 mps 755 mmHg 69%
    07:00 +1°C° 0 mm 2 mps 755 mmHg 72%
    08:00 +2°C° 0 mm 2 mps 755 mmHg 69%
    09:00 +2°C° 0 mm 3 mps 755 mmHg 66%
    10:00 +3°C° 0 mm 3 mps 755 mmHg 62%
    11:00 +4°C° 0 mm 3 mps 755 mmHg 62%
    12:00 +5°C° 0 mm 3 mps 755 mmHg 61%
    13:00 +7°C° 0 mm 3 mps 755 mmHg 60%
    14:00 +7°C° 0 mm 3 mps 755 mmHg 65%
    15:00 +7°C° 0 mm 3 mps 755 mmHg 69%
    16:00 +6°C° 0 mm 4 mps 755 mmHg 73%
    17:00 +5°C° 0 mm 3 mps 755 mmHg 79%
    18:00 +4°C° 0 mm 3 mps 755 mmHg 85%
    19:00 +3°C° 0 mm 3 mps 755 mmHg 92%
    20:00 +3°C° 0 mm 2 mps 755 mmHg 92%
    21:00 +3°C° 0 mm 2 mps 755 mmHg 93%
    22:00 +2°C° 0 mm 2 mps 755 mmHg 93%
    23:00 +2°C° 0 mm 2 mps 755 mmHg 93%
    Show more